Weather History for KMYF - February, 2013

Change the Weather History Date:

Sunday, February 17, 2013

  Actual Average Record
Temperature  
Mean Temperature 54 °F -  
Max Temperature 62 °F 62 °F 82 °F (2007)
Min Temperature 45 °F 46 °F 43 °F (2012)
Degree Days  
Heating Degree Days 12    
Growing Degree Days 4 (Base 50)    
Moisture  
Dew Point 43 °F    
Average Humidity 67    
Maximum Humidity 83    
Minimum Humidity 46    
Precipitation  
Precipitation 0.00 in - - ()
Sea Level Pressure  
Sea Level Pressure 29.99 in    
Wind  
Wind Speed 5 mph (SSE)    
Max Wind Speed 13 mph    
Max Gust Speed 20 mph    
Visibility 10 miles    
Events      
Averages and records for this station are not official NWS values.
T = Trace of Precipitation, MM = Missing Value Source: NWS Daily Summary

Daily Weather History Graph

Daily Weather History Graph

Search for Another Location

Airport or City:

Trip Planner

Search our weather history database for the weather conditions in past years. The results will help you decide how hot, cold, wet, or windy it might be!

Date:

Astronomy

Feb. 17, 2013 Rise Set
Actual Time 6:29 AM PST 5:36 PM PST
Civil Twilight 6:04 AM PST 6:01 PM PST
Nautical Twilight 5:35 AM PST 6:30 PM PST
Astronomical Twilight 5:06 AM PST 6:58 PM PST
Moon 10:51 AM PST (2/17) 12:11 AM PST (2/17)
Length of Visible Light 11h 56m
Length of Day
11h 06m
Waxing Crescent, 50% of the Moon is Illuminated
Feb 17
Waxing Crescent
Feb 17
First Quarter
Feb 25
Full
Mar 4
Last Quarter
Mar 11
New

Hourly Weather History & Observations

Time (PST) Temp. Windchill Dew Point Humidity Pressure Visibility Wind Dir Wind Speed Gust Speed Precip Events Conditions
12:53 AM 55.0 °F - 46.9 °F 74% 29.99 in 10.0 mi WSW 3.5 mph - N/A   Clear
1:53 AM 48.9 °F - 42.1 °F 77% 29.99 in 10.0 mi East 3.5 mph - N/A   Clear
2:53 AM 48.0 °F - 42.1 °F 80% 29.97 in 10.0 mi East 4.6 mph - N/A   Clear
3:53 AM 46.0 °F - 41.0 °F 83% 29.96 in 10.0 mi Calm Calm - N/A   Clear
4:53 AM 45.0 °F 41.8 °F 33.1 °F 63% 29.96 in 10.0 mi East 5.8 mph - N/A   Clear
5:53 AM 50.0 °F - 30.0 °F 46% 29.96 in 10.0 mi Calm Calm - N/A   Clear
6:53 AM 45.0 °F - 30.9 °F 58% 29.98 in 10.0 mi Calm Calm - N/A   Clear
7:38 AM 51.8 °F - 32.0 °F 47% 29.99 in 10.0 mi ESE 6.9 mph - N/A   Scattered Clouds
7:53 AM 52.0 °F - 37.9 °F 59% 29.99 in 10.0 mi SE 4.6 mph - N/A   Scattered Clouds
8:12 AM 53.6 °F - 39.2 °F 58% 30.00 in 10.0 mi SE 3.5 mph - N/A   Mostly Cloudy
8:36 AM 55.4 °F - 44.6 °F 67% 30.00 in 10.0 mi SE 4.6 mph - N/A   Scattered Clouds
8:53 AM 55.9 °F - 46.9 °F 72% 30.00 in 10.0 mi SSE 5.8 mph - N/A   Scattered Clouds
9:53 AM 60.1 °F - 46.0 °F 60% 30.00 in 10.0 mi South 6.9 mph - N/A   Clear
10:53 AM 61.0 °F - 48.9 °F 64% 30.00 in 10.0 mi West 6.9 mph - N/A   Clear
11:53 AM 62.1 °F - 48.9 °F 62% 29.99 in 10.0 mi SSW 10.4 mph - N/A   Clear
12:53 PM 62.1 °F - 44.1 °F 52% 29.96 in 10.0 mi South 12.7 mph - N/A   Clear
1:53 PM 60.1 °F - 48.0 °F 64% 29.96 in 10.0 mi Variable 6.9 mph - N/A   Clear
2:53 PM 59.0 °F - 48.0 °F 67% 29.97 in 10.0 mi SSW 11.5 mph - N/A   Scattered Clouds
3:19 PM 57.2 °F - 46.4 °F 67% 29.97 in 10.0 mi SSW 11.5 mph 19.6 mph N/A   Mostly Cloudy
3:22 PM 57.2 °F - 46.4 °F 67% 29.97 in 10.0 mi South 11.5 mph 19.6 mph N/A   Mostly Cloudy
3:53 PM 57.0 °F - 46.9 °F 69% 29.98 in 10.0 mi SSW 10.4 mph - N/A   Mostly Cloudy
4:53 PM 55.0 °F - 46.0 °F 72% 29.99 in 10.0 mi South 8.1 mph - N/A   Overcast
5:53 PM 54.0 °F - 46.9 °F 77% 29.99 in 10.0 mi South 5.8 mph - N/A   Overcast
6:53 PM 54.0 °F - 46.0 °F 75% 30.00 in 10.0 mi SE 3.5 mph - N/A   Overcast
7:53 PM 54.0 °F - 46.0 °F 75% 30.00 in 10.0 mi ESE 4.6 mph - N/A   Overcast
9:53 PM 53.1 °F - 46.0 °F 77% 30.02 in 10.0 mi Calm Calm - N/A   Overcast
10:53 PM 53.1 °F - 46.0 °F 77% 30.04 in 10.0 mi Calm Calm - N/A   Overcast
11:53 PM 53.1 °F - 46.0 °F 77% 30.03 in 9.0 mi East 3.5 mph - N/A   Overcast